• Join FlightAware (Why Join?)
  • Login
  • US Flag 
08:12PM EST


 

Airport Tracker/Info


-or-


 

Live Flight TrackerFlight Track Log ✈ N147SW ✈ 27-Apr-2014 ✈ KEYW - KPIE

Flight Track Log - Related Links

Times and Time Zones

All times are in EDT time to prevent confusion due to time zone crossing. See the N147SW flight status page for this flight to view local times or setup timezone preferences in your user account.

Time Position Orientation Groundspeed Altitude Reporting Facility
EDT Latitude Longitude Course Direction KTS MPH feet Rate Location/Type
01:38PM 24.8808 -81.7072 346° North 383 441 13,500  Level Miami Center
01:39PM 25.1663 -81.9244 346° North  Level Estimated
01:39PM 24.9733 -81.6881 11° North 347 399 15,800  Level Miami Center
01:40PM 25.2680 -81.9520 346° North  Level Estimated
01:40PM 25.0764 -81.7242 342° North 334 384 18,800  Level Miami Center
01:41PM 25.3697 -81.9797 346° North  Level Estimated
01:41PM 25.1603 -81.7781 330° Northwest 333 383 20,800  Level Miami Center
01:42PM 25.4713 -82.0074 346° North  Level Estimated
01:42PM 25.2544 -81.8344 332° Northwest 352 405 22,000  Level Miami Center
01:43PM 25.3525 -81.8983 330° Northwest 383 441 22,000  Level Miami Center
01:44PM 25.4489 -81.9531 333° Northwest 415 478 22,000  Level Miami Center
01:45PM 25.5528 -82.0217 329° Northwest 432 497 22,000  Level Miami Center
01:46PM 25.6633 -82.0864 332° Northwest 437 503 22,000  Level Miami Center
01:47PM 25.7714 -82.1556 330° Northwest 437 503 22,000  Level Miami Center
01:48PM 25.8817 -82.2250 330° Northwest 442 509 22,000  Level Miami Center
01:49PM 25.9942 -82.2925 332° Northwest 447 514 22,000  Level Miami Center
01:50PM 26.1000 -82.3597 330° Northwest 453 521 22,000  Level Miami Center
01:51PM 26.2147 -82.4158 336° Northwest 448 516 22,000  Level Miami Center
01:52PM 26.3319 -82.4631 340° North 437 503 22,000  Level Miami Center
01:53PM 26.4489 -82.5175 337° Northwest 437 503 22,000 -350 Level Miami Center
01:54PM 26.5681 -82.5672 340° North 450 518 21,300 -850 Descending Miami Center
01:55PM 26.6889 -82.6219 338° Northwest 460 529 20,300 -1,300 Descending Miami Center
01:56PM 26.8100 -82.6719 340° North 465 535 18,700 -1,750 Descending Miami Center
01:57PM 26.9342 -82.6992 349° North 459 528 16,800 -2,000 Descending Miami Center
01:58PM 27.0522 -82.7261 349° North 446 513 14,700 -1,900 Descending Miami Center
01:59PM 27.1656 -82.7550 347° North 434 499 13,000 -850 Descending Miami Center
02:00PM 27.2731 -82.7817 348° North 419 482 13,000 -750 Level Miami Center
02:01PM 27.3856 -82.7897 356° North 406 467 11,500 -1,750 Descending Miami Center
02:02PM 27.4769 -82.7944 357° North 369 425 9,500 -2,000 Descending Miami Center
02:03PM 27.5603 -82.7989 357° North 327 376 7,500 -2,000 Descending Miami Center
02:04PM 27.6439 -82.7983 360° North 301 346 5,500 -2,000 Descending Miami Center
02:05PM 27.7233 -82.7908 North 289 333 3,500 -1,597 Descending Miami Center
02:06PM 27.8167 -82.7667 13° North 279 321 2,200 -726 Descending Tampa TRACON
02:07PM 27.8833 -82.7333 24° Northeast 277 319 2,000 -500 Descending Tampa TRACON
02:08PM 27.9500 -82.7167 12° North 199 229 1,200 -800 Descending Tampa TRACON
02:10PM 27.9100 -82.6875 187° South  Level Estimated
02:17PM 27.9100 -82.6875 341° North  Level Estimated
02:18PM 27.9100 -82.6875 180° South  Level Estimated